OBJECT AK, 67281

Orbit data source: Space-Track

You're viewing an Uncataloged Satellite

Recently launched and/or uncataloged satellites may have evolving metadata. Metadata may include but not limited to: Owner, Maufacturer, Bus, Motor, and Mission.

OBJECT AK, 67281 is a satellite in SSO that was launched on Sun, 28 Dec 2025 UTC via a SOYUZ-2-1B launch vehicle from the Vostochny Cosmodrome (VOSTO). Unknown objects in Earth's orbit typically refer to objects detected orbiting the Earth but have not yet been identified or cataloged. These objects could be anything from previously untracked satellites, spent rocket stages, debris from satellite collisions, or even natural meteoroids temporarily captured by Earth's gravity.

Loading next visibility...
Identifier
67281, 2025-313AK
Orbit
SSO
Country
Flag of TBDTBD
Related business
None
Manufacturer
Unknown
Mission
Operational Commercial Technology
Bus & Motor
Unknown
Mass
Unknown
Launch date (UTC)
2025-12-28 (6 months ago)
Launch vehicle
SOYUZ-2-1B
Launch site
Vostochny Cosmodrome (VOSTO)
Object type
Unknown
Shape & HBR
Box, 0.1 m
Radar Cross Section
0.015 m², Medium (>0.1 m² and < 1m²)

Expand to show TLE details & history
Last TLE update: 1 day ago

TLE from 1 day ago
0 OBJECT AK
1 67281U 25313AK  26170.76341582  .00004053  00000-0  17740-3 0  9994
2 67281  97.3877 245.2428 0011566 359.5076   0.6147 15.22554325 26345
Epoch: 2026-06-19T18:19Z
TLE epoch observation values (Epoch: 2026-06-19T18:19:19.126Z)
Latitude
-0.00006°
Longitude
62.42539°
Altitude
493.279 km
Speed
7.623 km/s
True Right ascension
16h 20m 58s
True Declination
0° 00' 00"
Sunlit
Object was in full shadow at epoch
Visualization orbit readout
Latitude
Unknown
Longitude
Unknown
Altitude
Unknown
Speed
Unknown
Apparent Right ascension
Unknown
Apparent Declination
Unknown
Sunlit
N/A
Visualization observer readout
Local Sidereal Time
07:19:36
Azimuth
Unknown
Elevation
Unknown
Doppler factor
Unknown
Orbital elements
Apogee altitude
503.05 km
Perigee altitude
487.151 km
Semi-major axis
6,873.238 km
Eccentricity
0.00116
Inclination
97.3877°
RAAN
245.2428°
Arg. of periapsis
359.5076°
True anomaly
0.61612°
Mean anomaly
0.6147°
Eccentric anomaly
0.61541°
Mean motion
3.80891 °/min
Orbital period
94.52 mins
BSTAR
0.0001774
Loading maneuver chart data...
Computing Atmospheric mass density...
Loading historical data...
Loading historical data...
Loading historical data...
Loading historical data...
Loading historical data...
Loading historical data...
Loading historical data...

Documentation

Showing up to 5 results
|